Location: Six Mile Lake
(44.9000°N, 79.7170°W)
Time: 02:39:13
(UTC-04:00)

LO-87 - Pass Details

Date: 05 July 2022
Orbit: 450 x 466 km, 97.4° (Epoch: 14 August)

Event Time Altitude Azimuth Distance (km) Brightness Sun altitude
Exits shadow 23:31:46 - 79° (ENE) 1,676 ? -17.7°
Reaches altitude 10° 23:32:30 10° 67° (ENE) 1,621 ? -17.8°
Maximum altitude 23:32:47 10° 62° (ENE) 1,617 ? -17.8°
Drops below altitude 10° 23:33:04 10° 57° (ENE) 1,623 ? -17.9°
Sets 23:37:06 0° 11° (N) 2,515 ? -18.2°
